Location: Cabeza Gorda
(40.0667°N, 4.9667°W)
Time: 19:55:48
(UTC+00:00)

Landsat 7 - Pass Details

Date: 15 January 2026
Orbit: 680 x 682 km, 97.9° (Epoch: 11 February)

Event Time Altitude Azimuth Distance (km) Brightness Sun altitude
Rises 06:38:09 0° 13° (NNE) 3,049 7.1 -11.8°
Reaches altitude 10° 06:40:25 10° 15° (NNE) 2,129 6.3 -11.4°
Maximum altitude 06:45:04 78° 101° (E) 699 3.9 -10.5°
Drops below altitude 10° 06:49:42 10° 189° (S) 2,112 6.4 -9.7°
Sets 06:51:55 0° 191° (S) 3,022 7.2 -9.3°
